Time,TemperatureF,DewpointF,PressureIn,WindDirection,WindDirectionDegrees,WindSpeedMPH,WindSpeedGustMPH,Humidity,HourlyPrecipIn,Conditions,Clouds,dailyrainin,SoftwareType,DateUTC
2013-04-04 00:01:00,46.0,23.7,30.24,NE,45,1.6,2.2,41,0.00,,,0.00,pywws,2013-04-04 04:01:00,
2013-04-04 00:02:00,46.0,23.7,30.24,NE,45,1.6,2.2,41,0.00,,,0.00,pywws,2013-04-04 04:02:00,
2013-04-04 00:03:00,46.0,23.7,30.24,NE,45,1.6,2.2,41,0.00,,,0.00,pywws,2013-04-04 04:03:00,
2013-04-04 00:09:00,46.0,24.2,30.23,South,180,2.2,3.8,42,0.00,,,0.00,pywws,2013-04-04 04:09:00,
2013-04-04 00:15:00,46.0,24.2,30.23,East,90,3.8,4.5,42,0.00,,,0.00,pywws,2013-04-04 04:15:00,
2013-04-04 00:20:00,46.4,24.0,30.23,SSW,202,3.1,4.5,41,0.00,,,0.00,pywws,2013-04-04 04:20:00,
2013-04-04 00:26:00,46.4,24.0,30.23,SE,135,2.2,3.1,41,0.00,,,0.00,pywws,2013-04-04 04:26:00,
2013-04-04 00:31:00,46.4,24.6,30.23,East,90,2.2,4.5,42,0.00,,,0.00,pywws,2013-04-04 04:31:00,
2013-04-04 00:37:00,46.4,24.6,30.22,South,180,1.6,3.1,42,0.00,,,0.00,pywws,2013-04-04 04:37:00,
2013-04-04 00:43:00,46.4,24.6,30.22,East,90,1.6,3.1,42,0.00,,,0.00,pywws,2013-04-04 04:43:00,
2013-04-04 00:48:00,46.2,24.4,30.22,South,180,0.7,1.6,42,0.00,,,0.00,pywws,2013-04-04 04:48:00,
2013-04-04 00:54:00,46.2,24.4,30.22,SE,135,1.6,2.2,42,0.00,,,0.00,pywws,2013-04-04 04:54:00,
2013-04-04 00:59:00,46.2,24.4,30.23,South,180,0.7,1.6,42,0.00,,,0.00,pywws,2013-04-04 04:59:00,
2013-04-04 01:05:00,46.2,24.4,30.23,SW,225,1.6,2.2,42,0.00,,,0.00,pywws,2013-04-04 05:05:00,
2013-04-04 01:11:00,46.2,25.0,30.23,East,90,2.2,3.8,43,0.00,,,0.00,pywws,2013-04-04 05:11:00,
2013-04-04 01:16:00,46.2,24.4,30.23,East,90,1.6,2.2,42,0.00,,,0.00,pywws,2013-04-04 05:16:00,
2013-04-04 01:22:00,46.4,25.1,30.23,SE,135,0.7,2.2,43,0.00,,,0.00,pywws,2013-04-04 05:22:00,
2013-04-04 01:27:00,46.6,25.3,30.24,East,90,0.7,2.2,43,0.00,,,0.00,pywws,2013-04-04 05:27:00,
2013-04-04 01:33:00,46.6,25.3,30.24,South,180,1.6,4.5,43,0.00,,,0.00,pywws,2013-04-04 05:33:00,
2013-04-04 01:39:00,46.6,24.7,30.23,SE,135,1.6,3.8,42,0.00,,,0.00,pywws,2013-04-04 05:39:00,
2013-04-04 01:44:00,46.6,24.7,30.23,NW,315,4.5,6.9,42,0.00,,,0.00,pywws,2013-04-04 05:44:00,
2013-04-04 01:50:00,46.8,24.3,30.23,South,180,3.1,5.4,41,0.00,,,0.00,pywws,2013-04-04 05:50:00,
2013-04-04 01:55:00,46.8,24.9,30.23,East,90,1.6,2.2,42,0.00,,,0.00,pywws,2013-04-04 05:55:00,
2013-04-04 02:01:00,46.9,24.5,30.23,South,180,1.6,3.8,41,0.00,,,0.00,pywws,2013-04-04 06:01:00,
2013-04-04 02:07:00,46.9,23.9,30.22,NE,45,3.1,6.9,40,0.00,,,0.00,pywws,2013-04-04 06:07:00,
2013-04-04 02:13:00,46.9,23.9,30.22,East,90,2.2,3.8,40,0.00,,,0.00,pywws,2013-04-04 06:13:00,
2013-04-04 02:19:00,46.9,23.9,30.22,East,90,2.2,3.8,40,0.00,,,0.00,pywws,2013-04-04 06:19:00,
2013-04-04 02:24:00,46.8,24.3,30.22,West,270,1.6,3.1,41,0.00,,,0.00,pywws,2013-04-04 06:24:00,
2013-04-04 02:29:00,46.8,24.3,30.22,South,180,1.6,3.1,41,0.00,,,0.00,pywws,2013-04-04 06:29:00,
2013-04-04 02:35:00,46.6,24.2,30.22,SW,225,2.2,4.5,41,0.00,,,0.00,pywws,2013-04-04 06:35:00,
2013-04-04 02:40:00,46.6,24.2,30.22,SE,135,2.2,3.8,41,0.00,,,0.00,pywws,2013-04-04 06:40:00,
2013-04-04 02:46:00,46.6,24.2,30.22,SE,135,2.2,4.5,41,0.00,,,0.00,pywws,2013-04-04 06:46:00,
2013-04-04 02:51:00,46.8,23.7,30.22,SE,135,3.1,3.8,40,0.00,,,0.00,pywws,2013-04-04 06:51:00,
2013-04-04 02:57:00,46.8,23.7,30.22,South,180,2.2,4.5,40,0.00,,,0.00,pywws,2013-04-04 06:57:00,
2013-04-04 03:03:00,46.9,22.7,30.22,SW,225,3.1,4.5,38,0.00,,,0.00,pywws,2013-04-04 07:03:00,
2013-04-04 03:08:00,46.9,22.7,30.22,North,0,3.1,5.4,38,0.00,,,0.00,pywws,2013-04-04 07:08:00,
2013-04-04 03:14:00,46.9,22.7,30.22,SW,225,3.1,3.8,38,0.00,,,0.00,pywws,2013-04-04 07:14:00,
2013-04-04 03:19:00,46.9,22.7,30.22,East,90,2.2,3.8,38,0.00,,,0.00,pywws,2013-04-04 07:19:00,
2013-04-04 03:24:00,46.9,22.0,30.22,SSE,158,3.8,6.0,37,0.00,,,0.00,pywws,2013-04-04 07:24:00,
2013-04-04 03:30:00,47.1,22.2,30.22,East,90,4.5,6.9,37,0.00,,,0.00,pywws,2013-04-04 07:30:00,
2013-04-04 03:35:00,46.9,22.0,30.22,SW,225,2.2,3.1,37,0.00,,,0.00,pywws,2013-04-04 07:35:00,
2013-04-04 03:41:00,46.9,22.0,30.22,SW,225,3.1,3.8,37,0.00,,,0.00,pywws,2013-04-04 07:41:00,
2013-04-04 03:47:00,46.9,21.4,30.22,East,90,1.6,2.2,36,0.00,,,0.00,pywws,2013-04-04 07:47:00,
2013-04-04 03:52:00,46.9,20.7,30.21,North,0,2.2,3.8,35,0.00,,,0.00,pywws,2013-04-04 07:52:00,
2013-04-04 03:58:00,46.9,21.4,30.22,East,90,3.1,5.4,36,0.00,,,0.00,pywws,2013-04-04 07:58:00,
2013-04-04 04:05:00,46.9,20.7,30.21,ENE,68,1.6,6.9,35,0.00,,,0.00,pywws,2013-04-04 08:05:00,
2013-04-04 04:10:00,46.8,20.6,30.21,East,90,2.2,3.1,35,0.00,,,0.00,pywws,2013-04-04 08:10:00,
2013-04-04 04:15:00,46.9,17.9,30.21,South,180,1.6,3.8,31,0.00,,,0.00,pywws,2013-04-04 08:15:00,
2013-04-04 04:21:00,46.8,17.7,30.21,South,180,3.1,4.5,31,0.00,,,0.00,pywws,2013-04-04 08:21:00,
2013-04-04 04:27:00,46.8,17.7,30.21,NE,45,1.6,3.1,31,0.00,,,0.00,pywws,2013-04-04 08:27:00,
2013-04-04 04:32:00,46.6,18.3,30.21,East,90,5.4,6.9,32,0.00,,,0.00,pywws,2013-04-04 08:32:00,
2013-04-04 04:38:00,46.4,16.7,30.20,East,90,1.6,2.2,30,0.00,,,0.00,pywws,2013-04-04 08:38:00,
2013-04-04 04:43:00,46.4,16.7,30.21,NE,45,3.1,5.4,30,0.00,,,0.00,pywws,2013-04-04 08:43:00,
2013-04-04 04:49:00,46.2,14.1,30.20,East,90,3.1,5.4,27,0.00,,,0.00,pywws,2013-04-04 08:49:00,
2013-04-04 04:54:00,46.0,14.0,30.20,South,180,1.6,3.1,27,0.00,,,0.00,pywws,2013-04-04 08:54:00,
2013-04-04 04:59:00,46.0,13.1,30.20,SE,135,2.2,4.5,26,0.00,,,0.00,pywws,2013-04-04 08:59:00,
2013-04-04 05:05:00,45.9,12.1,30.20,SSE,158,2.2,3.8,25,0.00,,,0.00,pywws,2013-04-04 09:05:00,
2013-04-04 05:11:00,45.9,12.9,30.20,East,90,2.2,6.9,26,0.00,,,0.00,pywws,2013-04-04 09:11:00,
2013-04-04 05:16:00,45.9,13.8,30.20,SE,135,6.9,7.6,27,0.00,,,0.00,pywws,2013-04-04 09:16:00,
2013-04-04 05:22:00,45.9,13.8,30.21,East,90,4.5,8.3,27,0.00,,,0.00,pywws,2013-04-04 09:22:00,
2013-04-04 05:27:00,45.7,13.6,30.21,NW,315,3.8,6.0,27,0.00,,,0.00,pywws,2013-04-04 09:27:00,
2013-04-04 05:33:00,45.7,14.5,30.21,East,90,4.5,6.0,28,0.00,,,0.00,pywws,2013-04-04 09:33:00,
2013-04-04 05:39:00,45.5,15.1,30.21,SW,225,2.2,4.5,29,0.00,,,0.00,pywws,2013-04-04 09:39:00,
2013-04-04 05:44:00,45.3,16.5,30.21,SE,135,4.5,6.0,31,0.00,,,0.00,pywws,2013-04-04 09:44:00,
2013-04-04 05:50:00,45.1,17.8,30.21,SW,225,3.8,6.9,33,0.00,,,0.00,pywws,2013-04-04 09:50:00,
2013-04-04 05:55:00,45.0,22.1,30.21,SE,135,1.6,3.8,40,0.00,,,0.00,pywws,2013-04-04 09:55:00,
2013-04-04 06:01:00,44.4,24.9,30.21,South,180,1.6,3.1,46,0.00,,,0.00,pywws,2013-04-04 10:01:00,
2013-04-04 06:07:00,42.8,28.2,30.21,South,180,4.5,12.1,56,0.00,,,0.00,pywws,2013-04-04 10:07:00,
2013-04-04 06:13:00,42.1,30.0,30.21,SE,135,2.2,4.5,62,0.00,,,0.00,pywws,2013-04-04 10:13:00,
2013-04-04 06:19:00,41.5,30.3,30.21,East,90,1.6,3.1,64,0.00,,,0.00,pywws,2013-04-04 10:19:00,
2013-04-04 06:24:00,41.2,30.7,30.21,SW,225,1.6,3.8,66,0.00,,,0.00,pywws,2013-04-04 10:24:00,
2013-04-04 06:35:00,40.6,31.3,30.21,SE,135,2.2,3.8,69,0.01,,,0.01,pywws,2013-04-04 10:35:00,
2013-04-04 06:45:00,40.3,31.3,30.22,NW,315,3.1,5.4,70,0.01,,,0.01,pywws,2013-04-04 10:45:00,
2013-04-04 06:51:00,40.1,30.4,30.22,East,90,2.2,3.1,68,0.01,,,0.01,pywws,2013-04-04 10:51:00,
2013-04-04 06:56:00,39.9,29.5,30.22,South,180,2.2,5.4,66,0.01,,,0.01,pywws,2013-04-04 10:56:00,
2013-04-04 07:02:00,39.9,30.2,30.21,NE,45,3.1,4.5,68,0.01,,,0.01,pywws,2013-04-04 11:02:00,
2013-04-04 07:07:00,39.7,30.1,30.21,NE,45,1.6,3.8,68,0.01,,,0.01,pywws,2013-04-04 11:07:00,
2013-04-04 07:13:00,39.7,30.8,30.22,NW,315,1.6,3.8,70,0.01,,,0.01,pywws,2013-04-04 11:13:00,
2013-04-04 07:19:00,39.4,30.1,30.22,South,180,3.8,6.0,69,0.01,,,0.01,pywws,2013-04-04 11:19:00,
2013-04-04 07:24:00,39.0,31.1,30.22,West,270,5.4,7.6,73,0.01,,,0.01,pywws,2013-04-04 11:24:00,
2013-04-04 07:29:00,38.7,30.1,30.22,South,180,4.5,7.6,71,0.00,,,0.01,pywws,2013-04-04 11:29:00,
2013-04-04 07:35:00,38.7,31.1,30.22,SE,135,1.6,3.1,74,0.00,,,0.01,pywws,2013-04-04 11:35:00,
2013-04-04 07:40:00,38.5,30.9,30.22,East,90,3.1,5.4,74,0.00,,,0.01,pywws,2013-04-04 11:40:00,
2013-04-04 07:46:00,38.5,29.9,30.22,SW,225,3.1,6.9,71,0.01,,,0.02,pywws,2013-04-04 11:46:00,
2013-04-04 07:51:00,38.3,30.4,30.22,NW,315,6.0,15.2,73,0.01,,,0.02,pywws,2013-04-04 11:51:00,
2013-04-04 07:57:00,37.8,29.6,30.22,North,0,0.7,3.8,72,0.02,,,0.04,pywws,2013-04-04 11:57:00,
2013-04-04 08:03:00,37.6,30.1,30.22,SE,135,3.1,4.5,74,0.02,,,0.04,pywws,2013-04-04 12:03:00,
2013-04-04 08:08:00,37.4,30.2,30.22,SW,225,7.6,11.4,75,0.02,,,0.04,pywws,2013-04-04 12:08:00,
2013-04-04 08:14:00,37.4,29.5,30.22,South,180,4.5,6.0,73,0.02,,,0.04,pywws,2013-04-04 12:14:00,
2013-04-04 08:19:00,37.2,28.4,30.22,SE,135,3.8,5.4,70,0.04,,,0.05,pywws,2013-04-04 12:19:00,
2013-04-04 08:25:00,37.0,27.5,30.21,South,180,3.1,6.0,68,0.04,,,0.05,pywws,2013-04-04 12:25:00,
2013-04-04 08:31:00,36.9,28.4,30.21,East,90,5.4,9.2,71,0.04,,,0.05,pywws,2013-04-04 12:31:00,
2013-04-04 08:36:00,36.7,26.8,30.22,NW,315,1.6,3.1,67,0.05,,,0.06,pywws,2013-04-04 12:36:00,
2013-04-04 08:42:00,36.3,27.8,30.21,SW,225,3.1,4.5,71,0.05,,,0.06,pywws,2013-04-04 12:42:00,
2013-04-04 08:47:00,36.3,27.8,30.21,East,90,4.5,6.9,71,0.04,,,0.06,pywws,2013-04-04 12:47:00,
2013-04-04 08:53:00,36.5,28.0,30.21,South,180,2.2,4.5,71,0.02,,,0.06,pywws,2013-04-04 12:53:00,
2013-04-04 08:59:00,36.3,27.8,30.21,East,90,1.6,3.8,71,0.02,,,0.06,pywws,2013-04-04 12:59:00,
2013-04-04 09:04:00,36.5,28.0,30.21,NE,45,3.1,5.4,71,0.02,,,0.06,pywws,2013-04-04 13:04:00,
2013-04-04 09:09:00,36.5,28.0,30.21,NW,315,3.1,5.4,71,0.02,,,0.06,pywws,2013-04-04 13:09:00,
2013-04-04 09:15:00,36.7,28.2,30.21,NE,45,2.2,3.8,71,0.02,,,0.06,pywws,2013-04-04 13:15:00,
2013-04-04 09:20:00,36.7,28.2,30.21,East,90,3.8,6.9,71,0.01,,,0.06,pywws,2013-04-04 13:20:00,
2013-04-04 09:26:00,36.9,28.4,30.21,South,180,3.1,5.4,71,0.01,,,0.06,pywws,2013-04-04 13:26:00,
2013-04-04 09:31:00,36.9,28.4,30.20,South,180,3.1,4.5,71,0.01,,,0.06,pywws,2013-04-04 13:31:00,
2013-04-04 09:37:00,37.0,28.5,30.20,East,90,1.6,3.1,71,0.00,,,0.06,pywws,2013-04-04 13:37:00,
2013-04-04 09:43:00,37.2,28.7,30.20,West,270,2.2,4.5,71,0.00,,,0.06,pywws,2013-04-04 13:43:00,
2013-04-04 09:48:00,37.4,30.2,30.20,SE,135,2.2,5.4,75,0.00,,,0.06,pywws,2013-04-04 13:48:00,
2013-04-04 09:54:00,37.4,29.9,30.20,South,180,3.8,6.9,74,0.00,,,0.06,pywws,2013-04-04 13:54:00,
2013-04-04 09:59:00,37.4,29.5,30.21,East,90,2.2,3.8,73,0.00,,,0.06,pywws,2013-04-04 13:59:00,
2013-04-04 10:05:00,37.4,30.2,30.21,South,180,3.1,5.4,75,0.01,,,0.07,pywws,2013-04-04 14:05:00,
2013-04-04 10:11:00,37.2,28.0,30.20,SE,135,3.8,6.0,69,0.01,,,0.07,pywws,2013-04-04 14:11:00,
2013-04-04 10:16:00,37.4,29.5,30.19,South,180,2.2,8.3,73,0.01,,,0.07,pywws,2013-04-04 14:16:00,
2013-04-04 10:21:00,37.4,28.9,30.20,East,90,5.4,8.3,71,0.01,,,0.07,pywws,2013-04-04 14:21:00,
2013-04-04 10:27:00,37.4,28.9,30.20,NW,315,1.6,2.2,71,0.01,,,0.07,pywws,2013-04-04 14:27:00,
2013-04-04 10:32:00,37.2,27.3,30.21,North,0,0.7,1.6,67,0.01,,,0.07,pywws,2013-04-04 14:32:00,
2013-04-04 10:38:00,37.2,27.3,30.20,SE,135,0.7,1.6,67,0.01,,,0.07,pywws,2013-04-04 14:38:00,
2013-04-04 10:43:00,37.0,26.8,30.19,East,90,1.6,3.8,66,0.01,,,0.07,pywws,2013-04-04 14:43:00,
2013-04-04 10:49:00,37.0,26.0,30.20,SE,135,3.8,6.0,64,0.01,,,0.07,pywws,2013-04-04 14:49:00,
2013-04-04 10:55:00,37.0,26.0,30.20,SE,135,4.5,7.6,64,0.01,,,0.07,pywws,2013-04-04 14:55:00,
2013-04-04 11:00:00,36.9,26.2,30.19,SE,135,4.5,6.9,65,0.01,,,0.07,pywws,2013-04-04 15:00:00,
2013-04-04 11:06:00,36.7,26.0,30.19,SW,225,2.2,3.8,65,0.00,,,0.07,pywws,2013-04-04 15:06:00,
2013-04-04 11:11:00,36.9,26.6,30.19,South,180,5.4,8.3,66,0.00,,,0.07,pywws,2013-04-04 15:11:00,
2013-04-04 11:17:00,36.9,26.6,30.20,SW,225,5.4,6.9,66,0.00,,,0.07,pywws,2013-04-04 15:17:00,
2013-04-04 11:23:00,36.9,26.9,30.19,SSW,202,5.4,9.2,67,0.01,,,0.08,pywws,2013-04-04 15:23:00,
2013-04-04 11:28:00,36.9,27.7,30.20,East,90,6.9,11.4,69,0.01,,,0.08,pywws,2013-04-04 15:28:00,
2013-04-04 11:34:00,36.9,28.7,30.21,ESE,112,2.2,5.4,72,0.01,,,0.08,pywws,2013-04-04 15:34:00,
2013-04-04 11:39:00,36.7,28.9,30.21,South,180,3.1,4.5,73,0.02,,,0.09,pywws,2013-04-04 15:39:00,
2013-04-04 11:45:00,36.5,29.0,30.22,South,180,3.1,4.5,74,0.02,,,0.09,pywws,2013-04-04 15:45:00,
2013-04-04 11:51:00,36.1,29.0,30.22,SW,225,0.7,1.6,75,0.02,,,0.09,pywws,2013-04-04 15:51:00,
2013-04-04 11:57:00,36.0,29.5,30.19,West,270,1.6,2.2,77,0.02,,,0.09,pywws,2013-04-04 15:57:00,
2013-04-04 12:02:00,35.8,29.9,30.18,East,90,3.1,4.5,79,0.04,,,0.11,pywws,2013-04-04 16:02:00,
2013-04-04 12:07:00,36.3,31.1,30.18,East,90,3.1,5.4,81,0.04,,,0.11,pywws,2013-04-04 16:07:00,
2013-04-04 12:13:00,37.2,31.9,30.17,East,90,3.1,4.5,81,0.05,,,0.12,pywws,2013-04-04 16:13:00,
2013-04-04 12:19:00,37.6,33.2,30.19,NE,45,2.2,3.8,84,0.04,,,0.12,pywws,2013-04-04 16:19:00,
2013-04-04 12:25:00,37.6,33.2,30.19,WSW,248,3.8,6.0,84,0.04,,,0.12,pywws,2013-04-04 16:25:00,
2013-04-04 12:31:00,37.4,33.0,30.19,East,90,3.1,6.0,84,0.04,,,0.12,pywws,2013-04-04 16:31:00,
2013-04-04 12:36:00,36.7,30.8,30.18,SE,135,2.2,5.4,79,0.04,,,0.12,pywws,2013-04-04 16:36:00,
2013-04-04 12:42:00,36.5,30.6,30.18,South,180,5.4,9.2,79,0.02,,,0.12,pywws,2013-04-04 16:42:00,
2013-04-04 12:47:00,36.1,30.3,30.18,South,180,3.8,4.5,79,0.04,,,0.13,pywws,2013-04-04 16:47:00,
2013-04-04 12:53:00,36.0,30.7,30.17,SE,135,2.2,3.8,81,0.06,,,0.15,pywws,2013-04-04 16:53:00,
2013-04-04 12:59:00,36.0,31.0,30.17,South,180,0.7,1.6,82,0.07,,,0.18,pywws,2013-04-04 16:59:00,
2013-04-04 13:04:00,36.1,31.5,30.17,SE,135,1.6,2.2,83,0.08,,,0.19,pywws,2013-04-04 17:04:00,
2013-04-04 13:10:00,36.1,31.5,30.17,NE,45,2.2,4.5,83,0.09,,,0.20,pywws,2013-04-04 17:10:00,
2013-04-04 13:15:00,36.0,31.6,30.16,South,180,1.6,3.1,84,0.11,,,0.22,pywws,2013-04-04 17:15:00,
2013-04-04 13:21:00,36.3,32.0,30.17,SW,225,3.8,6.9,84,0.12,,,0.24,pywws,2013-04-04 17:21:00,
2013-04-04 13:26:00,36.1,32.1,30.17,SE,135,3.8,9.2,85,0.12,,,0.24,pywws,2013-04-04 17:26:00,
2013-04-04 13:31:00,35.8,31.7,30.17,SE,135,2.2,3.8,85,0.12,,,0.24,pywws,2013-04-04 17:31:00,
2013-04-04 13:37:00,36.0,32.2,30.16,SSE,158,3.1,4.5,86,0.12,,,0.24,pywws,2013-04-04 17:37:00,
2013-04-04 13:43:00,36.0,32.2,30.16,East,90,3.8,9.2,86,0.11,,,0.24,pywws,2013-04-04 17:43:00,
2013-04-04 13:48:00,36.0,32.2,30.16,NE,45,4.5,9.2,86,0.11,,,0.25,pywws,2013-04-04 17:48:00,
2013-04-04 13:54:00,36.1,32.4,30.15,South,180,2.2,3.8,86,0.08,,,0.25,pywws,2013-04-04 17:54:00,
2013-04-04 13:59:00,36.1,32.4,30.15,SE,135,1.6,3.8,86,0.07,,,0.25,pywws,2013-04-04 17:59:00,
2013-04-04 14:05:00,36.1,32.4,30.15,SE,135,0.7,2.2,86,0.06,,,0.25,pywws,2013-04-04 18:05:00,
2013-04-04 14:11:00,36.0,31.9,30.16,South,180,2.2,3.8,85,0.05,,,0.25,pywws,2013-04-04 18:11:00,
2013-04-04 14:16:00,35.8,31.7,30.15,East,90,2.2,3.8,85,0.04,,,0.25,pywws,2013-04-04 18:16:00,
2013-04-04 14:22:00,35.6,31.8,30.14,South,180,3.1,4.5,86,0.04,,,0.26,pywws,2013-04-04 18:22:00,
2013-04-04 14:27:00,35.4,31.9,30.14,East,90,0.7,2.2,87,0.04,,,0.27,pywws,2013-04-04 18:27:00,
2013-04-04 14:33:00,35.2,32.0,30.14,South,180,0.7,2.2,88,0.05,,,0.28,pywws,2013-04-04 18:33:00,
2013-04-04 14:39:00,35.2,32.0,30.13,SSE,158,2.2,3.1,88,0.05,,,0.28,pywws,2013-04-04 18:39:00,
2013-04-04 14:44:00,35.1,32.2,30.14,SE,135,1.6,2.2,89,0.06,,,0.30,pywws,2013-04-04 18:44:00,
2013-04-04 14:49:00,35.2,32.3,30.13,South,180,1.6,2.2,89,0.07,,,0.32,pywws,2013-04-04 18:49:00,
2013-04-04 14:55:00,35.2,32.3,30.12,South,180,0.7,3.1,89,0.07,,,0.32,pywws,2013-04-04 18:55:00,
2013-04-04 15:00:00,35.4,32.8,30.11,SW,225,2.2,4.5,90,0.08,,,0.33,pywws,2013-04-04 19:00:00,
2013-04-04 15:06:00,36.1,33.5,30.11,East,90,1.6,3.8,90,0.08,,,0.33,pywws,2013-04-04 19:06:00,
2013-04-04 15:11:00,36.7,34.0,30.11,South,180,4.5,6.0,90,0.09,,,0.34,pywws,2013-04-04 19:11:00,
2013-04-04 15:17:00,36.7,33.7,30.10,East,90,3.8,6.0,89,0.09,,,0.34,pywws,2013-04-04 19:17:00,
2013-04-04 15:23:00,36.5,33.0,30.10,SE,135,3.8,5.4,87,0.09,,,0.35,pywws,2013-04-04 19:23:00,
2013-04-04 15:28:00,36.3,32.8,30.10,SSW,202,2.2,4.5,87,0.08,,,0.35,pywws,2013-04-04 19:28:00,
2013-04-04 15:34:00,36.7,32.9,30.09,South,180,2.2,3.8,86,0.07,,,0.35,pywws,2013-04-04 19:34:00,
2013-04-04 15:39:00,36.9,33.1,30.10,East,90,3.8,5.4,86,0.06,,,0.35,pywws,2013-04-04 19:39:00,
2013-04-04 15:45:00,36.9,33.4,30.10,SE,135,1.6,3.8,87,0.07,,,0.38,pywws,2013-04-04 19:45:00,
2013-04-04 15:51:00,36.9,33.4,30.09,South,180,1.6,3.8,87,0.06,,,0.38,pywws,2013-04-04 19:51:00,
2013-04-04 15:56:00,37.2,34.0,30.09,SE,135,1.6,2.2,88,0.07,,,0.39,pywws,2013-04-04 19:56:00,
2013-04-04 16:02:00,37.2,33.7,30.09,East,90,3.8,6.0,87,0.07,,,0.39,pywws,2013-04-04 20:02:00,
2013-04-04 16:07:00,36.9,33.4,30.09,South,180,1.6,3.1,87,0.06,,,0.39,pywws,2013-04-04 20:07:00,
2013-04-04 16:13:00,36.9,33.4,30.09,South,180,1.6,3.8,87,0.05,,,0.39,pywws,2013-04-04 20:13:00,
2013-04-04 16:19:00,36.9,33.6,30.08,South,180,0.0,2.2,88,0.04,,,0.39,pywws,2013-04-04 20:19:00,
2013-04-04 16:24:00,37.0,33.8,30.09,East,90,0.7,1.6,88,0.04,,,0.39,pywws,2013-04-04 20:24:00,
2013-04-04 16:29:00,37.0,34.1,30.08,South,180,0.7,2.2,89,0.04,,,0.39,pywws,2013-04-04 20:29:00,
2013-04-04 16:35:00,37.0,34.1,30.07,South,180,1.6,2.2,89,0.04,,,0.39,pywws,2013-04-04 20:35:00,
2013-04-04 16:40:00,37.4,35.8,30.07,NE,45,0.0,1.6,94,0.04,,,0.39,pywws,2013-04-04 20:40:00,
2013-04-04 16:46:00,37.2,34.6,30.07,South,180,0.0,0.7,90,0.01,,,0.39,pywws,2013-04-04 20:46:00,
2013-04-04 16:51:00,37.4,35.8,30.06,SE,135,0.7,1.6,94,0.02,,,0.40,pywws,2013-04-04 20:51:00,
2013-04-04 16:57:00,37.6,36.0,30.06,SW,225,0.0,0.7,94,0.01,,,0.40,pywws,2013-04-04 20:57:00,
2013-04-04 17:03:00,37.8,36.2,30.06,East,90,0.0,0.7,94,0.01,,,0.40,pywws,2013-04-04 21:03:00,
2013-04-04 17:08:00,37.8,35.9,30.06,East,90,0.7,1.6,93,0.01,,,0.40,pywws,2013-04-04 21:08:00,
2013-04-04 17:14:00,37.6,35.7,30.05,SW,225,0.0,0.7,93,0.01,,,0.40,pywws,2013-04-04 21:14:00,
2013-04-04 17:19:00,37.8,35.9,30.06,SW,225,0.0,0.7,93,0.01,,,0.40,pywws,2013-04-04 21:19:00,
2013-04-04 17:25:00,37.8,35.6,30.05,West,270,0.7,1.6,92,0.01,,,0.40,pywws,2013-04-04 21:25:00,
2013-04-04 17:31:00,37.6,35.5,30.05,SW,225,0.7,2.2,92,0.01,,,0.40,pywws,2013-04-04 21:31:00,
2013-04-04 17:36:00,37.4,35.3,30.05,SW,225,0.7,2.2,92,0.01,,,0.40,pywws,2013-04-04 21:36:00,
2013-04-04 17:42:00,37.4,35.3,30.05,NE,45,0.7,1.6,92,0.02,,,0.41,pywws,2013-04-04 21:42:00,
2013-04-04 17:47:00,37.6,35.5,30.05,South,180,0.7,1.6,92,0.02,,,0.43,pywws,2013-04-04 21:47:00,
2013-04-04 17:53:00,37.6,35.5,30.05,West,270,0.0,1.6,92,0.02,,,0.43,pywws,2013-04-04 21:53:00,
2013-04-04 17:59:00,37.6,35.5,30.05,North,0,0.0,0.0,92,0.02,,,0.43,pywws,2013-04-04 21:59:00,
2013-04-04 18:04:00,37.6,35.5,30.05,North,0,0.7,1.6,92,0.02,,,0.43,pywws,2013-04-04 22:04:00,
2013-04-04 18:10:00,37.6,35.5,30.04,North,0,0.0,0.0,92,0.02,,,0.43,pywws,2013-04-04 22:10:00,
2013-04-04 18:15:00,37.6,35.5,30.05,NE,45,0.0,0.0,92,0.02,,,0.43,pywws,2013-04-04 22:15:00,
2013-04-04 18:22:00,37.6,35.5,30.04,East,90,0.0,0.0,92,0.02,,,0.43,pywws,2013-04-04 22:22:00,
2013-04-04 18:29:00,37.6,35.5,30.04,South,180,0.0,0.7,92,0.02,,,0.43,pywws,2013-04-04 22:29:00,
2013-04-04 18:35:00,37.8,35.9,30.03,East,90,0.7,1.6,93,0.02,,,0.43,pywws,2013-04-04 22:35:00,
2013-04-04 18:40:00,37.8,35.9,30.03,ENE,68,0.0,0.0,93,0.01,,,0.43,pywws,2013-04-04 22:40:00,
2013-04-04 18:46:00,37.6,35.7,30.04,NE,45,0.7,2.2,93,0.01,,,0.43,pywws,2013-04-04 22:46:00,
2013-04-04 18:52:00,37.2,34.3,30.03,NE,45,0.7,1.6,89,0.00,,,0.43,pywws,2013-04-04 22:52:00,
2013-04-04 18:57:00,37.0,34.4,30.03,NE,45,0.7,0.7,90,0.01,,,0.44,pywws,2013-04-04 22:57:00,
2013-04-04 19:02:00,37.0,34.4,30.03,NE,45,0.0,0.0,90,0.01,,,0.44,pywws,2013-04-04 23:02:00,
2013-04-04 19:07:00,37.0,34.7,30.03,North,0,0.0,0.7,91,0.01,,,0.44,pywws,2013-04-04 23:07:00,
2013-04-04 19:13:00,37.0,34.7,30.03,NE,45,0.0,0.0,91,0.02,,,0.45,pywws,2013-04-04 23:13:00,
2013-04-04 19:19:00,37.0,34.7,30.03,NE,45,1.6,2.2,91,0.02,,,0.45,pywws,2013-04-04 23:19:00,
2013-04-04 19:24:00,37.0,34.7,30.02,NE,45,0.0,1.6,91,0.02,,,0.45,pywws,2013-04-04 23:24:00,
2013-04-04 19:30:00,36.9,34.8,30.02,NE,45,1.6,2.2,92,0.02,,,0.45,pywws,2013-04-04 23:30:00,
2013-04-04 19:35:00,36.9,34.8,30.02,NE,45,0.7,1.6,92,0.02,,,0.45,pywws,2013-04-04 23:35:00,
2013-04-04 19:41:00,37.0,34.9,30.02,East,90,0.0,0.7,92,0.02,,,0.45,pywws,2013-04-04 23:41:00,
2013-04-04 19:47:00,37.0,35.2,30.01,NE,45,0.7,1.6,93,0.02,,,0.45,pywws,2013-04-04 23:47:00,
2013-04-04 19:52:00,36.9,35.0,30.01,NE,45,0.7,2.2,93,0.01,,,0.45,pywws,2013-04-04 23:52:00,
2013-04-04 19:58:00,36.9,35.0,30.01,NE,45,1.6,2.2,93,0.01,,,0.45,pywws,2013-04-04 23:58:00,
2013-04-04 20:03:00,36.7,34.9,30.01,NE,45,1.6,2.2,93,0.01,,,0.45,pywws,2013-04-05 00:03:00,
2013-04-04 20:09:00,36.5,34.7,30.01,NE,45,0.7,1.6,93,0.00,,,0.45,pywws,2013-04-05 00:09:00,
2013-04-04 20:15:00,36.7,34.9,30.01,East,90,0.7,0.7,93,0.00,,,0.45,pywws,2013-04-05 00:15:00,
2013-04-04 20:20:00,36.7,34.9,30.01,NE,45,1.6,2.2,93,0.00,,,0.45,pywws,2013-04-05 00:20:00,
2013-04-04 20:27:00,36.7,35.1,30.00,South,180,0.0,0.0,94,0.00,,,0.45,pywws,2013-04-05 00:27:00,
2013-04-04 20:32:00,36.9,35.3,30.00,South,180,1.6,3.1,94,0.00,,,0.45,pywws,2013-04-05 00:32:00,
2013-04-04 20:38:00,37.2,35.7,30.00,NE,45,0.7,1.6,94,0.00,,,0.45,pywws,2013-04-05 00:38:00,
2013-04-04 20:43:00,37.4,37.1,30.00,SW,225,2.2,3.1,99,0.00,,,0.45,pywws,2013-04-05 00:43:00,
2013-04-04 20:49:00,37.6,37.3,30.00,SW,225,0.7,1.6,99,0.00,,,0.45,pywws,2013-04-05 00:49:00,
2013-04-04 20:55:00,37.8,37.5,30.01,East,90,1.6,3.1,99,0.00,,,0.45,pywws,2013-04-05 00:55:00,
2013-04-04 21:00:00,37.9,37.7,30.00,SW,225,1.6,2.2,99,0.00,,,0.45,pywws,2013-04-05 01:00:00,
2013-04-04 21:06:00,38.1,37.9,30.00,South,180,1.6,3.1,99,0.00,,,0.45,pywws,2013-04-05 01:06:00,
2013-04-04 21:11:00,38.1,37.9,30.00,SW,225,1.6,3.1,99,0.00,,,0.45,pywws,2013-04-05 01:11:00,
2013-04-04 21:17:00,38.3,38.0,30.00,South,180,1.6,2.2,99,0.00,,,0.45,pywws,2013-04-05 01:17:00,
2013-04-04 21:23:00,38.3,37.8,30.00,West,270,1.6,3.1,98,0.00,,,0.45,pywws,2013-04-05 01:23:00,
2013-04-04 21:28:00,38.3,37.8,30.00,East,90,2.2,3.1,98,0.00,,,0.45,pywws,2013-04-05 01:28:00,
2013-04-04 21:34:00,38.3,37.8,30.00,SE,135,0.7,1.6,98,0.00,,,0.45,pywws,2013-04-05 01:34:00,
2013-04-04 21:39:00,38.3,37.8,30.00,East,90,0.0,0.7,98,0.00,,,0.45,pywws,2013-04-05 01:39:00,
2013-04-04 21:45:00,38.3,37.8,30.00,East,90,0.0,0.7,98,0.00,,,0.45,pywws,2013-04-05 01:45:00,
2013-04-04 21:51:00,38.3,37.8,30.00,West,270,0.7,1.6,98,0.00,,,0.45,pywws,2013-04-05 01:51:00,
2013-04-04 21:56:00,38.3,37.8,30.00,West,270,2.2,3.1,98,0.00,,,0.45,pywws,2013-04-05 01:56:00,
2013-04-04 22:02:00,38.1,37.6,30.01,NW,315,1.6,2.2,98,0.00,,,0.45,pywws,2013-04-05 02:02:00,
2013-04-04 22:07:00,37.8,37.2,30.01,West,270,1.6,2.2,98,0.00,,,0.45,pywws,2013-04-05 02:07:00,
2013-04-04 22:13:00,37.4,36.9,30.00,NE,45,0.0,0.7,98,0.00,,,0.45,pywws,2013-04-05 02:13:00,
2013-04-04 22:19:00,37.4,36.9,29.99,North,0,0.7,2.2,98,0.00,,,0.45,pywws,2013-04-05 02:19:00,
2013-04-04 22:24:00,37.4,36.9,30.00,South,180,0.0,1.6,98,0.00,,,0.45,pywws,2013-04-05 02:24:00,
2013-04-04 22:29:00,37.8,37.5,30.00,SE,135,2.2,4.5,99,0.00,,,0.45,pywws,2013-04-05 02:29:00,
2013-04-04 22:35:00,37.9,37.7,30.00,East,90,0.7,2.2,99,0.00,,,0.45,pywws,2013-04-05 02:35:00,
2013-04-04 22:40:00,38.1,37.9,30.00,West,270,0.0,1.6,99,0.00,,,0.45,pywws,2013-04-05 02:40:00,
2013-04-04 22:46:00,38.3,38.0,29.99,SW,225,0.7,1.6,99,0.00,,,0.45,pywws,2013-04-05 02:46:00,
2013-04-04 22:51:00,38.3,38.0,29.99,WSW,248,0.7,2.2,99,0.00,,,0.45,pywws,2013-04-05 02:51:00,
2013-04-04 22:57:00,38.3,38.0,29.99,East,90,0.0,0.7,99,0.00,,,0.45,pywws,2013-04-05 02:57:00,
2013-04-04 23:03:00,37.9,37.7,29.98,East,90,0.7,0.7,99,0.00,,,0.45,pywws,2013-04-05 03:03:00,
2013-04-04 23:08:00,37.8,37.2,29.98,SE,135,0.0,0.0,98,0.00,,,0.45,pywws,2013-04-05 03:08:00,
2013-04-04 23:14:00,37.6,37.1,29.98,NW,315,0.0,0.0,98,0.00,,,0.45,pywws,2013-04-05 03:14:00,
2013-04-04 23:19:00,37.6,37.1,29.98,NE,45,0.7,2.2,98,0.00,,,0.45,pywws,2013-04-05 03:19:00,
2013-04-04 23:25:00,37.6,37.1,29.98,NE,45,0.0,0.7,98,0.00,,,0.45,pywws,2013-04-05 03:25:00,
2013-04-04 23:31:00,37.4,36.9,29.98,North,0,0.0,0.0,98,0.00,,,0.45,pywws,2013-04-05 03:31:00,
2013-04-04 23:39:00,37.4,36.9,29.98,South,180,0.0,0.7,98,0.00,,,0.45,pywws,2013-04-05 03:39:00,
2013-04-04 23:44:00,37.4,36.9,29.98,South,180,0.0,0.0,98,0.00,,,0.45,pywws,2013-04-05 03:44:00,
2013-04-04 23:50:00,37.4,36.9,29.98,East,90,0.0,0.0,98,0.00,,,0.45,pywws,2013-04-05 03:50:00,
2013-04-04 23:55:00,37.2,35.7,29.98,East,90,0.0,0.0,94,0.00,,,0.45,pywws,2013-04-05 03:55:00,